Total_Precipitation_Accumulation
1.74 1.82 1.85 1.88 1.79 1.90 2.08 2.31 2.23 2.30 2.37 2.16 1.89 1.76 1.81 1.83 1.88 1.85 1.79 2.00 1.90 1.89 2.33 2.43 2.18 1.91 1.76 1.50 1.26 1.05 0.96 0.89 0.77 0.60 0.51 0.56 0.64 0.71 0.65 0.55 0.52 0.48 0.40
2.13 2.08 1.93 1.94 1.87 1.91 1.98 2.15 2.26 2.58 2.54 2.45 2.04 1.86 1.89 1.98 1.97 2.06 1.97 2.24 2.10 1.85 2.07 2.31 2.40 2.25 2.03 1.83 1.58 1.36 1.19 1.07 0.92 0.66 0.55 0.52 0.57 0.67 0.66 0.65 0.59 0.54 0.45
2.31 2.24 2.11 1.95 1.98 2.02 2.12 2.15 2.28 2.57 2.54 2.42 2.19 2.04 1.96 1.82 1.70 1.76 1.82 1.99 1.91 1.79 1.85 2.04 2.29 2.36 2.25 2.14 1.99 1.82 1.53 1.29 1.10 0.85 0.67 0.54 0.46 0.52 0.54 0.58 0.58 0.56 0.47
2.35 2.34 2.14 1.92 2.08 2.05 2.14 2.33 2.43 2.59 2.73 2.73 2.45 2.18 2.03 1.87 1.67 1.63 1.58 1.59 1.73 1.45 1.64 1.86 2.03 2.15 2.43 2.54 2.56 2.55 2.15 1.66 1.29 1.06 0.87 0.68 0.55 0.49 0.44 0.45 0.49 0.46 0.38
2.28 2.32 2.10 2.01 2.14 2.26 2.26 2.12 2.52 2.76 2.81 2.82 2.39 2.19 1.86 1.71 1.55 1.43 1.45 1.33 1.38 1.38 1.41 1.48 1.63 1.75 2.22 2.76 3.07 3.13 2.90 2.30 1.70 1.37 1.20 1.03 0.84 0.69 0.52 0.43 0.43 0.38 0.32
2.14 2.34 2.01 2.00 2.20 2.36 2.34 2.38 2.70 2.82 2.71 2.82 2.43 2.05 1.67 1.35 1.29 1.24 1.15 1.11 1.08 0.97 1.04 1.28 1.58 1.45 1.85 2.33 2.64 2.87 3.09 2.92 2.32 1.76 1.54 1.40 1.25 1.03 0.76 0.60 0.52 0.49 0.40
2.29 2.57 2.26 2.33 2.29 2.26 2.27 2.45 2.64 2.56 2.41 2.78 2.83 2.16 1.48 1.11 1.05 0.88 0.86 0.87 0.80 0.82 1.05 1.36 1.55 1.62 1.48 1.54 1.73 2.05 2.57 2.95 2.84 2.34 1.99 1.78 1.64 1.32 0.99 0.82 0.66 0.57 0.50
2.37 2.37 2.42 2.30 2.33 2.35 2.18 2.23 2.48 2.36 2.01 2.37 2.64 2.61 1.94 1.47 1.07 0.66 0.69 0.71 0.75 0.94 1.00 1.05 1.34 1.63 1.55 1.68 1.48 1.39 1.90 2.48 2.88 2.84 2.51 2.12 1.78 1.44 1.21 1.07 0.87 0.70 0.58
2.42 2.44 2.27 2.14 2.18 2.12 2.01 1.97 2.16 2.25 2.04 2.01 2.34 2.69 2.20 1.63 1.27 0.83 0.76 0.75 0.94 1.19 1.18 1.16 1.24 1.43 1.51 1.70 1.80 1.70 1.52 1.70 2.30 3.00 3.03 2.47 1.83 1.42 1.24 1.23 1.21 0.99 0.79
2.68 2.47 2.25 2.07 1.95 1.84 1.86 1.64 1.86 2.00 2.05 1.75 1.89 1.98 1.86 1.83 1.77 1.30 0.96 0.88 1.09 1.21 1.22 1.21 1.24 1.38 1.46 1.66 1.81 1.74 1.39 1.25 1.52 2.36 2.87 2.76 2.23 1.64 1.35 1.41 1.72 1.63 1.22
2.77 2.46 2.30 2.15 1.99 1.84 1.71 1.63 1.78 1.71 1.71 1.61 1.69 1.73 1.74 1.72 1.63 1.58 1.30 1.18 1.13 0.90 0.91 0.99 1.19 1.49 1.55 1.62 1.81 1.69 1.54 1.49 1.44 1.58 1.90 2.16 2.23 1.97 1.70 1.73 2.17 2.42 2.16
2.38 2.19 2.08 1.96 1.81 1.81 1.79 1.73 1.69 1.62 1.62 1.67 1.65 1.60 1.68 1.71 1.67 1.73 1.52 1.36 1.23 1.00 0.96 0.99 1.11 1.29 1.38 1.43 1.45 1.53 1.53 1.49 1.36 1.30 1.34 1.44 1.63 1.83 1.97 2.15 2.55 2.92 3.06
1.66 1.62 1.67 1.68 1.61 1.63 1.66 1.71 1.59 1.50 1.54 1.61 1.58 1.57 1.61 1.62 1.66 1.75 1.69 1.40 1.32 1.15 1.19 1.12 1.05 1.20 1.22 1.39 1.51 1.46 1.28 1.23 1.07 1.02 1.03 1.09 1.24 1.42 1.57 1.75 2.16 2.63 3.00
1.41 1.46 1.53 1.50 1.47 1.49 1.46 1.59 1.46 1.37 1.36 1.38 1.36 1.60 1.61 1.44 1.58 1.72 1.76 1.74 1.61 1.48 1.53 1.36 1.15 1.14 1.25 1.37 1.45 1.40 1.22 1.08 0.89 0.79 0.79 0.80 0.85 1.02 1.20 1.38 1.60 1.82 2.08
1.42 1.46 1.41 1.43 1.45 1.50 1.55 1.59 1.46 1.37 1.45 1.39 1.37 1.56 1.58 1.52 1.59 1.65 1.80 1.89 1.97 1.82 1.69 1.56 1.30 1.21 1.26 1.29 1.43 1.33 1.34 1.20 0.91 0.80 0.78 0.76 0.73 0.77 0.86 1.04 1.21 1.34 1.56
1.50 1.54 1.49 1.50 1.50 1.50 1.51 1.51 1.32 1.32 1.47 1.51 1.57 1.72 1.69 1.62 1.65 1.71 1.84 2.01 2.18 2.13 1.82 1.46 1.34 1.34 1.43 1.36 1.50 1.34 1.32 1.36 1.14 0.93 0.82 0.80 0.78 0.78 0.80 0.92 1.04 1.16 1.29
1.48 1.49 1.48 1.49 1.48 1.45 1.49 1.49 1.33 1.42 1.49 1.51 1.52 1.62 1.69 1.73 1.75 1.77 1.91 1.99 2.17 2.37 2.11 1.67 1.57 1.63 1.74 1.72 1.62 1.44 1.26 1.20 1.07 1.01 0.86 0.79 0.77 0.79 0.83 0.87 0.98 1.08 1.13
1.49 1.53 1.55 1.55 1.45 1.46 1.61 1.62 1.52 1.58 1.61 1.58 1.59 1.65 1.57 1.68 1.82 1.81 1.92 1.93 2.02 2.28 2.18 1.94 1.85 1.87 1.93 1.87 1.84 1.66 1.36 1.22 1.15 1.09 0.90 0.81 0.80 0.78 0.80 0.79 0.86 0.99 1.10
1.59 1.64 1.70 1.76 1.73 1.75 1.73 1.76 1.82 1.79 1.67 1.57 1.61 1.60 1.56 1.71 1.75 1.82 1.91 1.85 1.84 1.97 2.10 2.05 2.01 2.11 2.14 2.03 1.95 1.78 1.61 1.53 1.26 1.16 1.07 0.97 0.94 0.91 0.88 0.86 0.87 0.94 1.05
1.65 1.71 1.77 1.94 2.10 2.14 2.11 2.03 1.93 1.85 1.75 1.68 1.64 1.60 1.60 1.64 1.65 1.69 1.77 1.83 1.86 1.95 2.06 2.09 2.15 2.31 2.31 2.36 2.30 2.04 1.92 1.86 1.58 1.26 1.23 1.14 1.07 0.99 0.92 0.84 0.82 0.87 0.95
1.59 1.84 2.00 2.10 2.33 2.45 2.31 2.31 2.20 2.09 2.06 1.89 1.76 1.67 1.56 1.54 1.55 1.58 1.52 1.60 1.73 1.84 1.85 1.90 1.97 2.18 2.28 2.40 2.37 2.18 2.04 2.03 1.87 1.53 1.41 1.32 1.27 1.17 1.11 1.06 0.93 0.84 0.86
1.48 1.65 1.81 1.93 1.95 1.83 2.00 2.01 1.97 1.99 2.00 1.90 1.84 1.78 1.62 1.48 1.42 1.36 1.26 1.27 1.36 1.45 1.60 1.78 1.81 1.99 2.18 2.32 2.47 2.53 2.39 2.23 2.12 1.89 1.78 1.65 1.45 1.38 1.23 1.10 1.04 0.85 0.75
1.42 1.53 1.58 1.64 1.62 1.68 1.70 1.51 1.46 1.44 1.56 1.65 1.72 1.71 1.49 1.34 1.39 1.30 1.30 1.26 1.23 1.29 1.37 1.57 1.71 1.79 2.02 2.22 2.44 2.60 2.60 2.50 2.34 2.20 2.09 1.94 1.63 1.44 1.26 1.14 1.06 0.84 0.71
1.49 1.48 1.52 1.55 1.63 1.61 1.52 1.32 1.31 1.26 1.35 1.45 1.54 1.57 1.54 1.46 1.43 1.47 1.41 1.30 1.20 1.24 1.33 1.32 1.36 1.52 1.78 2.13 2.33 2.36 2.47 2.47 2.36 2.24 2.18 2.13 1.88 1.67 1.47 1.32 1.22 0.95 0.78
1.69 1.62 1.63 1.68 1.67 1.64 1.53 1.31 1.30 1.25 1.33 1.38 1.41 1.43 1.44 1.38 1.42 1.34 1.28 1.26 1.26 1.27 1.24 1.22 1.20 1.25 1.39 1.61 1.96 2.10 2.16 2.12 2.02 1.81 1.70 1.77 1.73 1.68 1.61 1.48 1.31 1.14 0.94
2.05 2.03 1.91 1.81 1.73 1.65 1.59 1.31 1.26 1.23 1.30 1.34 1.40 1.38 1.32 1.21 1.17 1.12 1.11 1.23 1.21 1.19 1.23 1.18 1.10 1.05 1.03 1.18 1.48 1.66 1.72 1.75 1.66 1.62 1.37 1.34 1.36 1.40 1.53 1.42 1.27 1.19 1.11